Home   Weather   Bakersfield   Past weeks

Flag for USA Past Weather in Bakersfield, California, USA — Yesterday and Last 2 Weeks

Now
47 °F

Overcast.


Feels Like: 44 °F
Forecast: 49 / 64 °F
Wind: 6 mph from Southeast

Location: Meadows Field

Current Time: Dec 8, 2016 at 8:11:34 am

Latest Report: Dec 8, 2016 at 6:54 am


Visibility: 3 mi

Pressure: 30.22 "Hg

Humidity: 80%

Dew Point: 41 °F

Location of BakersfieldLocation

Past Weather in Bakersfield — Graph

°F

Bakersfield Temperature Yesterday

Maximum temperature yesterday: 55 °F (at 1:54 pm)
Minimum temperature yesterday: 40 °F (at 6:54 am)
Average temperature yesterday: 47 °F

High & Low Weather Summary for the Past Weeks

 TemperatureHumidityPressure
High67 °F (Nov 26, 10:54 am)100% (Nov 24, 8:03 am)30.34 "Hg (Nov 24, 8:03 am)
Low36 °F (Dec 3, 6:54 am)17% (Nov 26, 10:54 am)29.82 "Hg (Nov 26, 10:54 am)
Average49 °F71%30.11 "Hg
* Reported Nov 23 6:54 am — Dec 8 6:54 am, Bakersfield, Weather by CustomWeather, © 2016

Note: Actual official high and low records may vary slightly from our data, if they occured in-between our weather recording intervals... More about our weather records

Advertising

Bakersfield Weather History for the Previous 24 Hours

Scroll right to see more
 ConditionsComfort  
Time TempWeatherWind HumidityBarometerVisibility
6:54 am
Thu, Dec 8
47 °FOvercast.6 mph80%30.22 "Hg3 mi
5:54 am48 °FOvercast.10 mph77%30.22 "Hg4 mi
4:54 am47 °FOvercast.No wind80%30.20 "Hg5 mi
3:54 am48 °FOvercast.3 mph74%30.17 "Hg5 mi
2:54 am47 °FOvercast.6 mph77%30.18 "Hg5 mi
1:54 am47 °FOvercast.No wind74%30.17 "Hg5 mi
12:54 am46 °FOvercast.No wind77%30.16 "Hg5 mi
11:54 pm
Wed, Dec 7
45 °FOvercast.3 mph76%30.16 "Hg5 mi
10:54 pm45 °FClear.7 mph74%30.16 "Hg5 mi
9:54 pm48 °FClear.5 mph71%30.16 "Hg5 mi
8:54 pm47 °FOvercast.3 mph74%30.17 "Hg6 mi
7:54 pm45 °FHaze.No wind71%30.17 "Hg6 mi
6:54 pm46 °FClear.5 mph71%30.17 "Hg6 mi
5:54 pm49 °FClear.5 mph66%30.17 "Hg7 mi
4:54 pm51 °FPassing clouds.8 mph63%30.17 "Hg6 mi
3:54 pm52 °FSunny.8 mph61%30.15 "Hg5 mi
2:54 pm54 °FScattered clouds.7 mph57%30.14 "Hg5 mi
1:54 pm55 °FSunny.3 mph55%30.13 "Hg5 mi
12:54 pm53 °FSunny.3 mph61%30.14 "Hg5 mi
11:54 am51 °FSunny.5 mph66%30.16 "Hg4 mi
10:54 am50 °FSunny.7 mph74%30.19 "Hg3 mi
9:54 am48 °FSunny.8 mph80%30.20 "Hg2 mi
8:54 am45 °FSunny.No wind82%30.18 "Hg2 mi
8:04 am42 °FFog.No wind85%30.17 "Hg2 mi
Weather by CustomWeather, © 2016

See weather overviewHow to use our weather pages